Home   Weather   Daytona Beach   Past weeks
Flag for USA

Past Weather in Daytona Beach, Florida, USA — Yesterday and Last 2 Weeks

Now
88 °F

Partly sunny.


Feels Like: 99 °F
Forecast: 87 / 78 °F
Wind: 10 mph from East

Location: Daytona Beach Regional Airport

Current Time: Aug 20, 2019 at 5:35:43 pm

Latest Report: Aug 20, 2019 at 3:53 pm


Visibility: 10 mi

Pressure: 30.08 "Hg

Humidity: 67%

Dew Point: 76 °F

Location of Daytona BeachLocation

Past Weather in Daytona Beach — Graph

°F

Daytona Beach Temperature Yesterday

Maximum temperature yesterday: 89 °F (at 12:53 pm)
Minimum temperature yesterday: 74 °F (at 5:53 am)
Average temperature yesterday: 82 °F

High & Low Weather Summary for the Past Weeks

 TemperatureHumidityPressure
High95 °F (Aug 9, 2:53 pm)100% (Aug 6, 1:53 am)30.13 "Hg (Aug 6, 1:53 am)
Low73 °F (Aug 6, 6:53 am)56% (Aug 9, 2:53 pm)29.88 "Hg (Aug 13, 3:53 pm)
Average81 °F89%29.99 "Hg
* Reported Aug 5 3:18 pm — Aug 20 3:53 pm, Daytona Beach. Weather by CustomWeather, © 2019

Note: Actual official high and low records may vary slightly from our data, if they occured in-between our weather recording intervals... More about our weather records

Advertising

Daytona Beach Weather History for the Previous 24 Hours

Scroll right to see more
 ConditionsComfort  
Time TempWeatherWind HumidityBarometerVisibility
3:53 pm
Tue, Aug 20
88 °FPartly sunny.10 mph67%30.08 "Hg10 mi
2:53 pm86 °FPartly sunny.12 mph67%30.09 "Hg10 mi
1:53 pm87 °FPartly sunny.10 mph65%30.10 "Hg10 mi
1:22 pm89 °FThunderstorms. Partly sunny.9 mph61%30.11 "Hg10 mi
12:53 pm88 °FPartly sunny.10 mph70%30.11 "Hg10 mi
11:53 am88 °FBroken clouds.6 mph73%30.13 "Hg10 mi
10:53 am86 °FPartly sunny.6 mph77%30.13 "Hg10 mi
9:53 am85 °FPartly sunny.5 mph80%30.13 "Hg10 mi
8:53 am81 °FBroken clouds.3 mph97%30.12 "Hg10 mi
7:53 am78 °FPartly sunny.No wind100%30.11 "Hg10 mi
6:53 am77 °FPartly cloudy.No wind100%30.09 "Hg10 mi
5:53 am78 °FPassing clouds.No wind100%30.07 "Hg10 mi
4:53 am78 °FPassing clouds.No wind100%30.06 "Hg10 mi
3:53 am79 °FPassing clouds.No wind97%30.07 "Hg10 mi
2:53 am78 °FPassing clouds.No wind100%30.09 "Hg9 mi
1:53 am79 °FPassing clouds.No wind97%30.09 "Hg10 mi
12:53 am81 °FPassing clouds.No wind94%30.11 "Hg10 mi
11:53 pm
Mon, Aug 19
80 °FPassing clouds.3 mph96%30.12 "Hg10 mi
10:53 pm80 °FPassing clouds.No wind96%30.12 "Hg10 mi
9:53 pm81 °FPassing clouds.No wind91%30.10 "Hg10 mi
8:53 pm81 °FPassing clouds.No wind91%30.06 "Hg10 mi
7:53 pm82 °FScattered clouds.3 mph88%30.04 "Hg10 mi
6:53 pm85 °FScattered clouds.3 mph77%30.02 "Hg10 mi
5:53 pm87 °FBroken clouds.8 mph75%30.04 "Hg10 mi
Weather by CustomWeather, © 2019

See weather overview